Weather History for Athens, TX

Change the Weather History Date:

Thursday, November 29, 2012

  Actual Average (KTYR) Record (KTYR)
Temperature  
Mean Temperature 50 °F 51 °F  
Max Temperature 66 °F 61 °F 80 °F (1949)
Min Temperature 33 °F 42 °F 10 °F (1976)
Degree Days  
Heating Degree Days 16 14  
Month to date heating degree days 281  
Since 1 July heating degree days 358  
Cooling Degree Days 0 0  
Month to date cooling degree days 14  
Year to date cooling degree days 2407  
Moisture  
Dew Point 40 °F    
Average Humidity 72    
Maximum Humidity 97    
Minimum Humidity 38    
Precipitation  
Precipitation 0.00 in 0.13 in 2.66 in (1981)
Month to date precipitation 3.96  
Year to date precipitation 41.41  
Snow  
Snow - - - ()
Month to date snowfall  
Since 1 July snowfall  
Since 1 September snowfall  
Snow Depth -    
Sea Level Pressure  
Sea Level Pressure 30.22 in    
Wind  
Wind Speed 2 mph ()    
Max Wind Speed 10 mph    
Max Gust Speed 16 mph    
Visibility 9.5 miles    
Events Fog    
T = Trace of Precipitation, MM = Missing Value Source: Averaged Metar Reports

Daily Weather History Graph

Daily Weather History Graph

Search for Another Location

Airport:

Trip Planner

Search our weather history database for the weather conditions in past years. The results will help you decide how hot, cold, wet, or windy it might be!

Date:

Astronomy

Nov. 29, 2012 Rise Set
Actual Time 7:05 AM CST 5:18 PM CST
Civil Twilight 6:38 AM CST 5:45 PM CST
Nautical Twilight 6:08 AM CST 6:15 PM CST
Astronomical Twilight 5:38 AM CST 6:44 PM CST
Moon 6:22 PM CST (11/29) 7:52 AM CST (11/29)
Length of Visible Light 11h 06m
Length of Day
10h 13m
Full, 99% of the Moon is Illuminated
Nov 29
Full
Dec 6
Last Quarter
Dec 13
New
Dec 19
First Quarter
Dec 28
Full

Hourly Weather History & Observations

Time (CST) Temp. Dew Point Humidity Pressure Visibility Wind Dir Wind Speed Gust Speed Precip Events Conditions
12:15 AM 39.7 °F 33.1 °F 77% 30.28 in 10.0 mi Calm Calm - N/A   Clear
12:35 AM 39.7 °F 33.4 °F 78% 30.29 in 10.0 mi Calm Calm - N/A   Clear
12:55 AM 38.3 °F 32.7 °F 80% 30.28 in 10.0 mi Calm Calm - N/A   Clear
1:15 AM 38.5 °F 33.1 °F 81% 30.28 in 10.0 mi Calm Calm - N/A   Clear
1:35 AM 37.4 °F 33.3 °F 85% 30.28 in 10.0 mi Calm Calm - N/A   Clear
1:55 AM 36.7 °F 33.1 °F 87% 30.29 in 10.0 mi Calm Calm - N/A   Clear
2:15 AM 35.8 °F 32.0 °F 86% 30.28 in 10.0 mi Calm Calm - N/A   Clear
2:35 AM 35.1 °F 32.0 °F 89% 30.28 in 10.0 mi Calm Calm - N/A   Clear
2:55 AM 34.7 °F 32.0 °F 90% 30.28 in 10.0 mi Calm Calm - N/A   Clear
3:15 AM 34.5 °F 31.8 °F 90% 30.27 in 10.0 mi Calm Calm - N/A   Clear
3:35 AM 34.5 °F 31.8 °F 90% 30.27 in 10.0 mi Calm Calm - N/A   Clear
3:55 AM 35.4 °F 33.4 °F 92% 30.27 in 10.0 mi Calm Calm - N/A   Clear
4:15 AM 35.8 °F 33.8 °F 92% 30.27 in 10.0 mi Calm Calm - N/A   Clear
4:35 AM 35.2 °F 33.1 °F 92% 30.27 in 10.0 mi Calm Calm - N/A   Clear
4:55 AM 33.6 °F 31.6 °F 92% 30.27 in 10.0 mi Calm Calm - N/A   Clear
5:15 AM 33.3 °F 31.5 °F 93% 30.27 in 10.0 mi Calm Calm - N/A   Clear
5:35 AM 33.1 °F 31.5 °F 94% 30.27 in 10.0 mi Calm Calm - N/A   Clear
5:55 AM 33.3 °F 31.8 °F 94% 30.27 in 10.0 mi Calm Calm - N/A   Clear
6:15 AM 33.1 °F 31.5 °F 94% 30.27 in 10.0 mi Calm Calm - N/A   Clear
6:35 AM 35.1 °F 34.3 °F 97% 30.27 in 5.0 mi Calm Calm - N/A   Clear
6:55 AM 34.9 °F 32.9 °F 92% 30.28 in 10.0 mi Calm Calm - N/A   Clear
7:15 AM 35.1 °F 32.5 °F 91% 30.29 in 7.0 mi Calm Calm - N/A   Mostly Cloudy
7:35 AM 35.1 °F 32.7 °F 91% 30.29 in 5.0 mi Calm Calm - N/A   Mostly Cloudy
7:55 AM 35.4 °F 32.9 °F 91% 30.29 in 7.0 mi Calm Calm - N/A   Mostly Cloudy
8:15 AM 36.5 °F 34.5 °F 93% 30.29 in 5.0 mi Calm Calm - N/A   Mostly Cloudy
8:35 AM 39.9 °F 38.5 °F 95% 30.29 in 0.5 mi Calm Calm - N/A Fog Fog
8:55 AM 42.6 °F 41.2 °F 95% 30.29 in 5.0 mi Calm Calm - N/A   Scattered Clouds
9:15 AM 45.9 °F 42.1 °F 87% 30.30 in 10.0 mi Calm Calm - N/A   Clear
9:35 AM 48.9 °F 41.7 °F 76% 30.29 in 10.0 mi SE 8.1 mph - N/A   Clear
9:55 AM 51.4 °F 40.3 °F 66% 30.29 in 10.0 mi SSE 5.8 mph - N/A   Clear
10:15 AM 53.4 °F 40.3 °F 61% 30.29 in 10.0 mi South 6.9 mph - N/A   Clear
10:35 AM 55.0 °F 40.1 °F 57% 30.27 in 10.0 mi SSE 8.1 mph - N/A   Clear
10:55 AM 56.7 °F 40.1 °F 54% 30.27 in 10.0 mi SSE 5.8 mph - N/A   Clear
11:15 AM 58.1 °F 39.7 °F 50% 30.27 in 10.0 mi SW 4.6 mph - N/A   Clear
11:35 AM 59.9 °F 38.7 °F 45% 30.26 in 10.0 mi SSE 5.8 mph - N/A   Clear
11:55 AM 61.3 °F 36.7 °F 40% 30.25 in 10.0 mi South 6.9 mph 16.1 mph N/A   Clear
12:15 PM 62.1 °F 36.0 °F 38% 30.23 in 10.0 mi SSE 8.1 mph - N/A   Clear
12:35 PM 63.1 °F 37.8 °F 39% 30.22 in 10.0 mi South 8.1 mph - N/A   Clear
12:55 PM 63.7 °F 39.2 °F 41% 30.20 in 10.0 mi South 4.6 mph - N/A   Clear
1:15 PM 64.2 °F 40.1 °F 41% 30.19 in 10.0 mi South 6.9 mph - N/A   Clear
1:35 PM 64.9 °F 40.5 °F 41% 30.18 in 10.0 mi South 8.1 mph - N/A   Clear
1:55 PM 65.1 °F 41.2 °F 42% 30.17 in 10.0 mi South 6.9 mph - N/A   Clear
2:15 PM 65.5 °F 42.1 °F 43% 30.16 in 10.0 mi South 6.9 mph - N/A   Clear
2:35 PM 66.0 °F 42.6 °F 43% 30.15 in 10.0 mi South 10.4 mph - N/A   Clear
2:55 PM 66.6 °F 42.4 °F 42% 30.14 in 10.0 mi SSE 9.2 mph - N/A   Clear
3:15 PM 66.6 °F 42.4 °F 42% 30.14 in 10.0 mi South 6.9 mph - N/A   Clear
3:35 PM 66.2 °F 42.6 °F 42% 30.14 in 10.0 mi South 4.6 mph - N/A   Clear
3:55 PM 65.5 °F 43.7 °F 45% 30.14 in 10.0 mi South 6.9 mph - N/A   Clear
4:15 PM 65.5 °F 44.2 °F 46% 30.14 in 10.0 mi SSE 8.1 mph - N/A   Clear
4:35 PM 65.1 °F 44.8 °F 48% 30.14 in 10.0 mi South 6.9 mph - N/A   Clear
4:55 PM 64.2 °F 45.3 °F 50% 30.14 in 10.0 mi South 8.1 mph - N/A   Clear
5:15 PM 62.4 °F 45.5 °F 54% 30.14 in 10.0 mi South 5.8 mph - N/A   Clear
5:35 PM 61.3 °F 45.7 °F 56% 30.15 in 10.0 mi South 3.5 mph - N/A   Clear
5:55 PM 59.5 °F 45.9 °F 61% 30.15 in 10.0 mi SSE 4.6 mph - N/A   Mostly Cloudy
6:15 PM 58.3 °F 46.0 °F 64% 30.15 in 10.0 mi SSE 3.5 mph - N/A   Scattered Clouds
6:35 PM 57.2 °F 46.0 °F 66% 30.15 in 10.0 mi SSE 3.5 mph - N/A   Clear
6:55 PM 57.0 °F 46.6 °F 68% 30.16 in 10.0 mi SSE 3.5 mph - N/A   Clear
7:15 PM 55.6 °F 46.4 °F 71% 30.16 in 10.0 mi SSE 3.5 mph - N/A   Clear
7:35 PM 55.0 °F 46.6 °F 73% 30.16 in 10.0 mi SSE 4.6 mph - N/A   Clear
7:55 PM 55.2 °F 46.9 °F 74% 30.16 in 10.0 mi Calm Calm - N/A   Clear
8:15 PM 54.9 °F 47.1 °F 75% 30.16 in 10.0 mi SSE 5.8 mph - N/A   Scattered Clouds
8:35 PM 54.3 °F 47.3 °F 77% 30.16 in 10.0 mi SSE 3.5 mph - N/A   Scattered Clouds
8:55 PM 54.5 °F 47.5 °F 77% 30.16 in 10.0 mi SSE 4.6 mph - N/A   Clear
9:15 PM 54.7 °F 47.7 °F 77% 30.16 in 10.0 mi SSE 4.6 mph - N/A   Clear
9:35 PM 54.5 °F 47.8 °F 78% 30.16 in 10.0 mi SSE 4.6 mph - N/A   Clear
9:55 PM 54.5 °F 48.2 °F 79% 30.15 in 10.0 mi SSE 4.6 mph - N/A   Clear
10:15 PM 54.0 °F 48.2 °F 81% 30.15 in 10.0 mi SSE 3.5 mph - N/A   Clear
10:35 PM 53.2 °F 48.0 °F 82% 30.16 in 10.0 mi SE 3.5 mph - N/A   Clear
10:55 PM 52.5 °F 47.8 °F 84% 30.16 in 10.0 mi Calm Calm - N/A   Clear
11:15 PM 51.4 °F 47.7 °F 87% 30.16 in 10.0 mi Calm Calm - N/A   Clear
11:35 PM 52.2 °F 48.2 °F 86% 30.17 in 10.0 mi SSE 5.8 mph - N/A   Clear
11:55 PM 54.5 °F 49.5 °F 83% 30.16 in 10.0 mi South 8.1 mph - N/A   Clear